Regional Weather Roundup
Issued by NWS

Home | Current Version | Previous Version | Text Only | Print | Product List | Glossary On
Versions: 1 2 3 4 5 6 7 8 9 10 11 12 13 14 15 16 17 18 19 20 21 22 23 24 25 26 27 28 29 30 31 32 33 34 35 36 37 38 39 40 41 42 43 44 45 46 47 48 49 50
000
ASUS43 KLSX 180107
RWRMO

WEATHER SUMMARY FOR MISSOURI
NATIONAL WEATHER SERVICE SPRINGFIELD MO
700 PM CST FRI NOV 17 2017

NOTE: "FAIR" INDICATES FEW OR NO CLOUDS BELOW 12,000 FEET WITH NO
       SIGNIFICANT WEATHER AND/OR OBSTRUCTIONS TO VISIBILITY.
       CURRENT SKY AND/OR WEATHER CONDITIONS ARE NOT AVAILABLE FOR
       CHILLICOTHE AND FARMINGTON.

MOZ001>031-035>038-043-044-053-054-180200-
...NORTHERN AND WESTERN MISSOURI...

CITY           SKY/WX    TMP DP  RH WIND       PRES   REMARKS
KANSAS CTY INT CLOUDY    57  56  96 S9        29.48F
KANSAS C DTWN  CLOUDY    66  58  75 CALM      29.48R
LEE`S SUMMIT   CLOUDY    64  61  90 S12       29.50S
ST JOSEPH      CLOUDY    52  51  97 CALM      29.48F FOG
CHILLICOTHE      N/A     56  55  97 CALM      29.53F
KIRKSVILLE     CLOUDY    53  53 100 SE7       29.55F

$$
MOZ066>068-077>081-088>096-101>105-180200-
...SOUTHWEST MISSOURI...

CITY           SKY/WX    TMP DP  RH WIND       PRES   REMARKS
SPRINGFIELD    CLOUDY    66  60  81 S17       29.60S
JOPLIN         CLOUDY    71  63  75 S17G30    29.56S
BRANSON        PTCLDY    66  59  77 S13G23    29.66S

$$
MOZ032>034-039>042-045>050-055>058-069>072-180200-
...CENTRAL MISSOURI...

CITY           SKY/WX    TMP DP  RH WIND       PRES   REMARKS
COLUMBIA       PTCLDY    62  57  83 S15       29.57F
JEFFERSON CITY CLOUDY    64  57  78 S8        29.58F
ROLLA          CLOUDY    60  58  92 S14       29.63F
SEDALIA        PTCLDY    64  60  87 S15       29.55R
WHITEMAN AFB   PTCLDY    62  58  85 S12       29.48S
WARRENSBURG    PTCLDY    63  57  82 SE8       29.51S
OSAGE BEACH    CLOUDY    64  58  80 S9        29.61F

$$
MOZ051-052-059>065-180200-
...EAST CENTRAL MISSOURI...

CITY           SKY/WX    TMP DP  RH WIND       PRES   REMARKS
ST LOUIS INTL  CLOUDY    55  48  77 SE14      29.67F
SPIRIT OF STL  CLOUDY    57  51  80 S10G18    29.64F
ST CHARLES     CLOUDY    55  48  77 SE16      29.66F

$$
MOZ072>076-082>087-097>100-106>115-180200-
...SOUTH CENTRAL AND SOUTHEAST MISSOURI...

CITY           SKY/WX    TMP DP  RH WIND       PRES   REMARKS
CAPE GIRARDEAU CLOUDY    62  50  64 S18G31    29.73F
FARMINGTON     CLOUDY    59  54  83 S8        29.71S
POPLAR BLUFF   CLOUDY    67  58  72 S15G24    29.71F
WEST PLAINS    CLOUDY    64  60  87 S9        29.69S

$$



USA.gov is the U.S. government's official web portal to all federal, state and local government web resources and services.